Location: ???? ?????????
(44.3677°N, 135.2344°E)
Time: 14:44:08
(UTC+00:00)

Celestis-02/Orion 38 - Pass Details

Date: 19 May 2025
Orbit: 773 x 861 km, 108.0° (Epoch: 20 June)

Event Time Altitude Azimuth Distance (km) Brightness Sun altitude
Exits shadow 15:05:09 77° 145° (SE) 807 4.4 -25.7°
Maximum altitude 15:05:32 88° 60° (ENE) 789 4.4 -25.7°
Drops below altitude 10° 15:10:38 10° 333° (NNW) 2,333 7.8 -25.6°
Sets 15:12:55 0° 334° (NNW) 3,261 8.7 -25.6°
